Find Starlink 32034

NORAD ID: 60297 Int'l Des: 2024-132 Owner: SPXS Country: US Constellation: starlink operational
LEOCIRCULAR

当前视图

正在加载3D地球...

About Starlink 32034

Starlink 32034 (NORAD 60297) is a starlink constellation satellite (v2 mini) launched Jul 28, 2024 by SPXS of US. It operates in LEO, CIRCULAR orbit with a mass of 730.00 kg.

即将过境

Passes for default location (London). Set your location on the main map for personalized predictions.

高度历史

Loading altitude history...

两行轨道根数

1 60297U 24132V 26264.25724785 -.00000500 00000-0 -43437-5 0 9999
2 60297 53.1593 222.5523 0001353 96.6927 263.4229 15.31700562121523
Epoch: Sep 21, 2026 • Age: 8 hours

当前状态

高度 473.5 km
远地点 / 近地点 N/A
速度 7.63 km/s
星下点 39.90°N, 143.57°E
发射日期 Jul 28, 2024
运行时间 2.1 years
类型 internet

技术详情

分类 Payload
质量 730.00 kg
干质量 700.00 kg
长度 0.30 m
跨度 29.00 m
形状 ? Box + pan
制造商 SPXS
平台类型 Starlink V2M
阶段状态 In Orbit
所有者/国家 SPXS/US

Most Searched